Hourly Data Report for March 31, 2020

MAYO A
YUKON TERRITORY
Current Station Operator: NAVCAN

63°36'59.000" N
135°52'06.000" W
503.80 m
2100701
71965
YMA

Download Data

Hourly Data (March 2020)
Hourly Data Report for March 31, 2020
TIME
LST
Temp Definition
°C
Dew Point Definition
°C
Rel Hum Definition
%
Precip. Amount Definition
mm

Wind Dir Definition
10's deg

Wind Spd Definition
km/h
Visibility Definition
km
Stn Press Definition
kPa
Hmdx Definition


Wind Chill Definition


Weather Definition


00:00 -18.9 -28.3 44   36 8 32.2 96.81   -25 LegendNANA
01:00 -21.9 -28.4 56   6 4 32.2 96.86   -26 Clear
02:00 -22.6 -30.3 50   5 10 32.2 96.92   -30 LegendNANA
03:00 -24.1 -28.7 67   10 7 32.2 96.96   -30 LegendNANA
04:00 -20.3 -29.4 45   3 10 32.2 97.00   -28 Clear
05:00 -22.5 -28.7 58   3 14 32.2 97.02   -32 LegendNANA
06:00 -24.1 -30.7 55   7 7 32.2 97.06   -30 LegendNANA
07:00 -21.8 -29.5 51   3 12 32.2 97.09   -30 Clear
08:00 -21.2 -29.1 50   6 7 32.2 97.13   -27 LegendNANA
09:00 -17.8 -27.9 42   5 13 32.2 97.15   -26 LegendNANA
10:00 -14.5 -26.4 36   4 13 32.2 97.12   -22 Clear
11:00 -12.0 -25.7 32   1 9 32.2 97.11   -17 LegendNANA
12:00 -9.9 -24.1 31   7 18 32.2 97.09   -17 LegendNANA
13:00 -9.0 -22.2 34   9 18 32.2 97.06   -16 Clear
14:00 -7.7 -22.8 29   11 18 32.2 97.01   -15 LegendNANA
15:00 -7.1 -21.6 31   10 17 32.2 96.99   -14 LegendNANA
16:00 -6.3 -21.6 29   9 17 32.2 96.96   -13 Clear
17:00 -6.3 -20.6 32   8 20 32.2 96.96   -13 LegendNANA
18:00 -6.6 -20.3 33   8 18 32.2 96.96   -13 LegendNANA
19:00 -8.0 -20.1 37   8 11 32.2 96.99   -13 Clear
20:00 -9.2 -21.0 38   7 9 32.2 97.03   -14 LegendNANA
21:00 -10.2 -21.8 39   36 13 32.2 97.07   -16 LegendNANA
22:00 -10.7 -22.5 38   4 11 32.2 97.14   -16 Clear
23:00 -11.6 -22.6 40   3 14 32.2 97.17   -18 LegendNANA

Notes on Data Quality.

Legend

  • E = Estimated
  • M = Missing
  • NA = Not Available*
  • [empty] = Indicates an unobserved value
Date modified: